Starlink 30960

operational
NORAD ID: 58456 Int'l Des: 2023-183 Owner: SPXS Country: US Constellation: starlink
LEOCIRCULAR

Über Starlink 30960

Beschreibung wird geladen...

Live-Position

3D-Globus wird geladen...

Nächste Überflüge

Höhenverlauf

Altitude vs Time

uPlot chart will show altitude changes over time

Zweizeiliger Elementsatz

1 58456U 23183V 25353.89105316 .00076548 00000-0 22771-2 0 9997
2 58456 42.9994 51.1581 0006347 58.4127 301.7345 15.33789226115483
Epoch: 19. Dez. 2025 • Age: 17 hours

Aktueller Status

Höhe 461.1 km
Geschwindigkeit 7.64 km/s
Subsatellitenpunkt 4.39°N, 103.26°E
Startdatum 28. Nov. 2023
Alter 2 years
Typ internet

Technische Details

Klassifizierung Payload
Masse 730.00 kg
Trockenmasse 700.00 kg
Gesamtmasse 730.00 kg
Länge 0.30 m
Durchmesser 4.10 m
Spannweite 29.00 m
Form Box + pan
Hersteller SPXS
Bus-Typ Starlink V2M
Phasenstatus In Orbit
Besitzer/Staat SPXS/US

Große Konstellationen

Loading constellations...